Meteo pe oră la Bolshie Vikorovichi

Astăzi, 9 Mai, Duminică

Timp Temperatura Precipitaţii Vânt Presiune Umiditate
00:00 +2°C° 0 mm 2 m/s 752 mmHg 93%
01:00 +2°C° 0 mm 2 m/s 752 mmHg 94%
02:00 +2°C° 0 mm 2 m/s 752 mmHg 94%
03:00 +1°C° 0 mm 2 m/s 753 mmHg 95%
04:00 +1°C° 0 mm 2 m/s 753 mmHg 95%
05:00 +1°C° 0 mm 2 m/s 753 mmHg 96%
06:00 +3°C° 0 mm 2 m/s 754 mmHg 88%
07:00 +5°C° 0 mm 2 m/s 754 mmHg 80%
08:00 +7°C° 0 mm 2 m/s 755 mmHg 72%
09:00 +9°C° 0 mm 2 m/s 755 mmHg 66%
10:00 +10°C° 0 mm 2 m/s 755 mmHg 59%
11:00 +12°C° 0 mm 2 m/s 755 mmHg 52%
12:00 +13°C° 0 mm 2 m/s 755 mmHg 48%
13:00 +14°C° 0 mm 2 m/s 755 mmHg 44%
14:00 +15°C° 0 mm 2 m/s 755 mmHg 40%
15:00 +15°C° 0 mm 2 m/s 755 mmHg 40%
16:00 +15°C° 0 mm 2 m/s 755 mmHg 40%
17:00 +15°C° 0 mm 1 m/s 755 mmHg 40%
18:00 +13°C° 0 mm 1 m/s 755 mmHg 47%
19:00 +11°C° 0 mm 1 m/s 755 mmHg 54%
20:00 +9°C° 0 mm 2 m/s 755 mmHg 61%
21:00 +8°C° 0 mm 2 m/s 755 mmHg 63%
22:00 +7°C° 0 mm 2 m/s 756 mmHg 66%
23:00 +5°C° 0 mm 3 m/s 756 mmHg 69%

Mâine, 10 Mai, Luni

Timp Temperatura Precipitaţii Vânt Presiune Umiditate
00:00 +5°C° 0 mm 3 m/s 756 mmHg 70%
01:00 +5°C° 0 mm 3 m/s 756 mmHg 71%
02:00 +4°C° 0 mm 3 m/s 756 mmHg 72%
03:00 +4°C° 0 mm 3 m/s 756 mmHg 72%
04:00 +4°C° 0 mm 3 m/s 756 mmHg 73%
05:00 +4°C° 0 mm 3 m/s 756 mmHg 73%
06:00 +7°C° 0 mm 3 m/s 756 mmHg 68%
07:00 +9°C° 0 mm 3 m/s 756 mmHg 63%
08:00 +11°C° 0 mm 3 m/s 757 mmHg 58%
09:00 +13°C° 0 mm 4 m/s 756 mmHg 53%
10:00 +15°C° 0 mm 4 m/s 756 mmHg 49%
11:00 +18°C° 0 mm 4 m/s 756 mmHg 45%
12:00 +19°C° 0 mm 4 m/s 756 mmHg 43%
13:00 +19°C° 0 mm 4 m/s 756 mmHg 42%
14:00 +20°C° 0 mm 4 m/s 755 mmHg 41%
15:00 +20°C° 0 mm 4 m/s 755 mmHg 43%
16:00 +20°C° 0 mm 4 m/s 755 mmHg 46%
17:00 +19°C° 0 mm 4 m/s 755 mmHg 48%
18:00 +17°C° 0 mm 3 m/s 755 mmHg 56%
19:00 +14°C° 0 mm 3 m/s 755 mmHg 63%
20:00 +12°C° 0 mm 3 m/s 755 mmHg 71%
21:00 +11°C° 0 mm 3 m/s 755 mmHg 73%
22:00 +10°C° 0 mm 3 m/s 755 mmHg 75%
23:00 +9°C° 0 mm 3 m/s 755 mmHg 77%

Poimâine, 11 Mai, Marţi

Timp Temperatura Precipitaţii Vânt Presiune Umiditate
00:00 +9°C° 0 mm 3 m/s 755 mmHg 78%
01:00 +8°C° 0 mm 3 m/s 755 mmHg 79%
02:00 +8°C° 0 mm 3 m/s 755 mmHg 81%
03:00 +7°C° 0 mm 3 m/s 755 mmHg 80%
04:00 +7°C° 0 mm 3 m/s 755 mmHg 80%
05:00 +7°C° 0 mm 3 m/s 755 mmHg 79%
06:00 +9°C° 0 mm 3 m/s 755 mmHg 71%
07:00 +11°C° 0 mm 4 m/s 755 mmHg 63%
08:00 +13°C° 0 mm 4 m/s 756 mmHg 54%
09:00 +14°C° 0 mm 4 m/s 755 mmHg 48%
10:00 +17°C° 0 mm 4 m/s 755 mmHg 42%
11:00 +18°C° 0 mm 4 m/s 755 mmHg 36%
12:00 +19°C° 0 mm 4 m/s 754 mmHg 37%
13:00 +20°C° 0 mm 4 m/s 754 mmHg 37%
14:00 +21°C° 0 mm 4 m/s 753 mmHg 38%
15:00 +21°C° 0 mm 4 m/s 753 mmHg 42%
16:00 +21°C° 0 mm 4 m/s 753 mmHg 46%
17:00 +21°C° 0 mm 4 m/s 752 mmHg 50%
18:00 +19°C° 0 mm 4 m/s 752 mmHg 58%
19:00 +17°C° 0 mm 3 m/s 752 mmHg 66%
20:00 +14°C° 0 mm 3 m/s 752 mmHg 74%
21:00 +13°C° 0 mm 3 m/s 752 mmHg 79%
22:00 +13°C° 0 mm 3 m/s 752 mmHg 83%
23:00 +12°C° 0 mm 3 m/s 752 mmHg 88%

12 Mai, Miercuri

Timp Temperatura Precipitaţii Vânt Presiune Umiditate
00:00 +12°C° 0 mm 3 m/s 751 mmHg 91%
01:00 +11°C° 0 mm 3 m/s 751 mmHg 93%
02:00 +11°C° 0 mm 3 m/s 751 mmHg 96%
03:00 +10°C° 0 mm 3 m/s 751 mmHg 96%
04:00 +10°C° 0 mm 3 m/s 751 mmHg 96%
05:00 +9°C° 0 mm 3 m/s 751 mmHg 97%
06:00 +10°C° 0 mm 4 m/s 751 mmHg 88%
07:00 +10°C° 0 mm 5 m/s 750 mmHg 79%
08:00 +11°C° 0 mm 6 m/s 750 mmHg 70%
09:00 +13°C° 0 mm 6 m/s 750 mmHg 64%
10:00 +14°C° 0 mm 6 m/s 750 mmHg 57%
11:00 +14°C° 0 mm 6 m/s 750 mmHg 50%
12:00 +15°C° 0 mm 6 m/s 749 mmHg 49%
13:00 +15°C° 0 mm 6 m/s 749 mmHg 49%
14:00 +15°C° 0 mm 6 m/s 749 mmHg 49%
15:00 +15°C° 0 mm 6 m/s 749 mmHg 52%
16:00 +14°C° 0 mm 5 m/s 748 mmHg 55%
17:00 +14°C° 0 mm 5 m/s 748 mmHg 59%
18:00 +12°C° 0 mm 4 m/s 748 mmHg 66%
19:00 +11°C° 0 mm 3 m/s 747 mmHg 73%
20:00 +10°C° 0 mm 3 m/s 747 mmHg 81%
21:00 +9°C° 0 mm 2 m/s 747 mmHg 85%
22:00 +8°C° 0 mm 2 m/s 746 mmHg 89%
23:00 +8°C° 0 mm 2 m/s 746 mmHg 93%

13 Mai, Joi

Timp Temperatura Precipitaţii Vânt Presiune Umiditate
00:00 +7°C° 0 mm 2 m/s 746 mmHg 94%
01:00 +7°C° 0 mm 2 m/s 746 mmHg 95%
02:00 +6°C° 0 mm 2 m/s 745 mmHg 96%
03:00 +6°C° 0 mm 2 m/s 745 mmHg 96%
04:00 +6°C° 0 mm 2 m/s 745 mmHg 96%
05:00 +6°C° 0 mm 2 m/s 744 mmHg 96%
06:00 +7°C° 0 mm 3 m/s 744 mmHg 89%
07:00 +9°C° 0 mm 3 m/s 744 mmHg 81%
08:00 +11°C° 0 mm 4 m/s 744 mmHg 74%
09:00 +12°C° 0 mm 4 m/s 744 mmHg 68%
10:00 +13°C° 0 mm 5 m/s 744 mmHg 63%
11:00 +14°C° 0 mm 6 m/s 744 mmHg 57%
12:00 +13°C° 0 mm 5 m/s 744 mmHg 65%
13:00 +12°C° 0 mm 5 m/s 744 mmHg 72%
14:00 +9°C° 0 mm 5 m/s 744 mmHg 80%
15:00 +9°C° 0.2 mm 5 m/s 744 mmHg 84%
16:00 +10°C° 0.2 mm 4 m/s 744 mmHg 88%
17:00 +8°C° 0.2 mm 4 m/s 744 mmHg 92%
18:00 +10°C° 0.1 mm 4 m/s 744 mmHg 92%
19:00 +10°C° 0.1 mm 4 m/s 744 mmHg 92%
20:00 +10°C° 0.1 mm 4 m/s 744 mmHg 91%
21:00 +10°C° 0 mm 3 m/s 744 mmHg 92%
22:00 +10°C° 0 mm 3 m/s 744 mmHg 93%
23:00 +9°C° 0 mm 3 m/s 743 mmHg 94%

14 Mai, Vineri

Timp Temperatura Precipitaţii Vânt Presiune Umiditate
00:00 +9°C° 0 mm 3 m/s 743 mmHg 94%
01:00 +9°C° 0 mm 3 m/s 743 mmHg 95%
02:00 +9°C° 0 mm 3 m/s 743 mmHg 96%
03:00 +9°C° 0.1 mm 3 m/s 743 mmHg 96%
04:00 +10°C° 0.1 mm 3 m/s 743 mmHg 96%
05:00 +10°C° 0.1 mm 3 m/s 743 mmHg 95%
06:00 +11°C° 0 mm 3 m/s 743 mmHg 92%
07:00 +12°C° 0 mm 3 m/s 743 mmHg 89%
08:00 +13°C° 0 mm 3 m/s 743 mmHg 85%
09:00 +14°C° 0 mm 3 m/s 743 mmHg 78%
10:00 +17°C° 0 mm 3 m/s 744 mmHg 70%
11:00 +18°C° 0 mm 4 m/s 744 mmHg 62%
12:00 +18°C° 0 mm 4 m/s 744 mmHg 62%
13:00 +19°C° 0 mm 3 m/s 744 mmHg 61%
14:00 +19°C° 0 mm 3 m/s 744 mmHg 60%
15:00 +19°C° 0 mm 4 m/s 744 mmHg 61%
16:00 +19°C° 0 mm 4 m/s 744 mmHg 61%
17:00 +19°C° 0 mm 4 m/s 744 mmHg 62%
18:00 +17°C° 0 mm 3 m/s 745 mmHg 71%
19:00 +14°C° 0 mm 3 m/s 745 mmHg 79%
20:00 +13°C° 0 mm 2 m/s 745 mmHg 87%
21:00 +12°C° 0 mm 2 m/s 746 mmHg 90%
22:00 +12°C° 0 mm 2 m/s 746 mmHg 92%
23:00 +10°C° 0 mm 2 m/s 746 mmHg 94%
Arată mai mult

Formular de consimțământ

Meteoprog și furnizorii noștri de servicii pot stoca și accesa date personale, precum cookies, identificatori de dispozitiv sau alte tehnologii similare pe dispozitivul dumneavoastră și procesa astfel de date pentru a personaliza conținutul și reclamele, dar și pentru a oferi caracteristici de social media și pentru a analiza traficul.

  • Stocarea și/sau accesarea informațiilor pe dispozitivul dumneavoastră

    Cookies, identificatori de dispozitiv sau alte informații pot fi stocate sau accesate pe dispozitiv în scopurile indicate mai sus.

  • Reclame și conținut personalizat, evaluarea reclamelor și a conținutului, informații despre audiențe și dezvoltarea produselor

    Reclamele și conținutul pot fi personalizate pe baza unui profil. Pot fi adăugate date suplimentare pentru a personaliza mai bine reclamele și conținutul. Performanța reclamelor și conținutului poate fi măsurată. Pot fi obținute informații despre utilizatorii care au văzut reclamele și conținutul. Aceste date pot fi utilizate pentru a dezvolta sau îmbunătăți experiența utilizatorilor, sistemele și software-ul.

Dând clic pe ‘Sunt de acord’, permiteți utilizarea cookie-urilor menționate, a identificatorilor de dispozitiv, balizelor web sau altor tehnologii similare. Setările pot fi modificate din browser-ul dispozitivului dumneavoastră.

În anumite scopuri, interesele legitime pot prima asupra consimțământului. Puteți citi mai multe informații în acest sens în Politica privind Confidențialitatea Datelor și Cookie.